Weather History for Pensacola NAS, FL

Change the Weather History Date:

Tuesday, February 4, 2014

  Actual Average Record
Temperature  
Mean Temperature 58 °F -  
Max Temperature 69 °F 59 °F 75 °F (1999)
Min Temperature 48 °F 43 °F 26 °F (2009)
Degree Days  
Heating Degree Days 6    
Growing Degree Days 8 (Base 50)    
Moisture  
Dew Point 58 °F    
Average Humidity 95    
Maximum Humidity 100    
Minimum Humidity 84    
Precipitation  
Precipitation 0.00 in - - ()
Sea Level Pressure  
Sea Level Pressure 30.01 in    
Wind  
Wind Speed 8 mph (ESE)    
Max Wind Speed 14 mph    
Max Gust Speed -    
Visibility 4 miles    
Events Fog , Rain    
Averages and records for this station are not official NWS values.
T = Trace of Precipitation, MM = Missing Value Source: NWS Daily Summary

Daily Weather History Graph

Daily Weather History Graph

Search for Another Location

Airport:

Trip Planner

Search our weather history database for the weather conditions in past years. The results will help you decide how hot, cold, wet, or windy it might be!

Date:

Astronomy

Feb. 04, 2014 Rise Set
Actual Time 6:38 AM CST 5:28 PM CST
Civil Twilight 6:13 AM CST 5:53 PM CST
Nautical Twilight 5:44 AM CST 6:22 PM CST
Astronomical Twilight 5:16 AM CST 6:50 PM CST
Moon 9:41 AM CST (2/4) 10:54 PM CST (2/4)
Length of Visible Light 11h 40m
Length of Day
10h 50m
Waxing Crescent, 29% of the Moon is Illuminated
Feb 4
Waxing Crescent
Feb 6
First Quarter
Feb 14
Full
Feb 22
Last Quarter
Mar 1
New

Hourly Weather History & Observations

Time (CST) Temp. Dew Point Humidity Pressure Visibility Wind Dir Wind Speed Gust Speed Precip Events Conditions
12:56 AM 50.0 °F 46.0 °F 86% 30.09 in 10.0 mi North 10.4 mph - N/A   Overcast
1:53 AM 50.0 °F 46.4 °F 87% 30.07 in 10.0 mi NNE 5.8 mph - N/A   Overcast
1:56 AM 50.0 °F 46.0 °F 86% 30.08 in 10.0 mi NNE 5.8 mph - N/A   Overcast
2:56 AM 48.9 °F 48.0 °F 97% 30.07 in 6.0 mi North 5.8 mph - N/A   Overcast
3:56 AM 48.9 °F 48.0 °F 97% 30.06 in 5.0 mi North 9.2 mph - N/A   Overcast
4:56 AM 50.0 °F 48.9 °F 96% 30.06 in 7.0 mi NNE 6.9 mph - N/A   Overcast
5:23 AM 50.0 °F 48.9 °F 96% 30.06 in 5.0 mi NNE 6.9 mph - N/A   Overcast
5:56 AM 50.0 °F 48.9 °F 96% 30.07 in 1.5 mi NNE 5.8 mph - N/A   Overcast
6:23 AM 50.0 °F 50.0 °F 100% 30.06 in 0.5 mi NNE 5.8 mph - N/A Fog Fog
6:56 AM 50.0 °F 50.0 °F 100% 30.08 in 0.8 mi East 6.9 mph - N/A   Overcast
7:28 AM 50.0 °F 50.0 °F 100% 30.06 in 1.0 mi ENE 10.4 mph - N/A   Overcast
7:37 AM 51.1 °F 50.0 °F 96% 30.07 in 1.5 mi ENE 8.1 mph - N/A   Overcast
7:56 AM 51.1 °F 51.1 °F 100% 30.07 in 1.5 mi ENE 6.9 mph - N/A   Overcast
8:56 AM 53.1 °F 52.0 °F 96% 30.08 in 1.5 mi East 8.1 mph - N/A   Overcast
9:56 AM 57.0 °F 55.0 °F 93% 30.07 in 1.5 mi East 11.5 mph - N/A   Overcast
10:19 AM 59.0 °F 55.9 °F 90% 30.05 in 2.0 mi East 11.5 mph - N/A   Overcast
10:29 AM 60.1 °F 57.0 °F 90% 30.05 in 3.0 mi East 12.7 mph - N/A   Overcast
10:52 AM 60.8 °F 57.2 °F 88% 30.05 in 1.2 mi East 9.2 mph - N/A   Overcast
10:56 AM 60.1 °F 57.9 °F 93% 30.05 in 1.2 mi East 9.2 mph - N/A   Overcast
11:09 AM 59.0 °F 57.9 °F 96% 30.04 in 1.0 mi East 10.4 mph - N/A   Overcast
11:33 AM 60.1 °F 59.0 °F 96% 30.02 in 0.8 mi East 8.1 mph - N/A   Overcast
11:43 AM 60.1 °F 59.0 °F 96% 30.02 in 0.5 mi East 8.1 mph - N/A Fog Fog
11:56 AM 60.1 °F 60.1 °F 100% 30.01 in 0.5 mi East 9.2 mph - N/A Fog Fog
12:09 PM 61.0 °F 61.0 °F 100% 30.00 in 0.2 mi East 8.1 mph - N/A Fog Fog
12:56 PM 64.0 °F 63.0 °F 96% 29.98 in 0.2 mi ESE 9.2 mph - N/A Fog Fog
1:13 PM 64.9 °F 64.0 °F 97% 29.97 in 0.5 mi SE 9.2 mph - N/A Fog Fog
1:19 PM 66.0 °F 64.9 °F 96% 29.97 in 1.2 mi SE 8.1 mph - N/A   Overcast
1:26 PM 66.0 °F 64.9 °F 96% 29.97 in 1.2 mi SE 8.1 mph - N/A   Overcast
1:33 PM 66.0 °F 64.0 °F 93% 29.96 in 3.0 mi SE 9.2 mph - N/A   Overcast
1:42 PM 66.9 °F 64.0 °F 90% 29.96 in 3.0 mi SSE 9.2 mph - N/A   Overcast
1:56 PM 66.9 °F 64.0 °F 90% 29.96 in 5.0 mi SSE 10.4 mph - N/A   Overcast
2:26 PM 68.0 °F 64.0 °F 87% 29.96 in 10.0 mi South 9.2 mph - N/A   Overcast
2:56 PM 69.1 °F 64.0 °F 84% 29.96 in 10.0 mi South 9.2 mph - N/A   Mostly Cloudy
3:56 PM 66.0 °F 64.0 °F 93% 29.97 in 10.0 mi SE 8.1 mph - N/A   Overcast
4:45 PM 64.9 °F 63.0 °F 93% 29.96 in 9.0 mi SE 8.1 mph - N/A   Overcast
4:56 PM 64.9 °F 63.0 °F 93% 29.97 in 9.0 mi SE 6.9 mph - N/A   Overcast
5:56 PM 64.0 °F 63.0 °F 96% 29.95 in 10.0 mi SE 10.4 mph - N/A   Overcast
6:56 PM 64.9 °F 64.0 °F 97% 29.95 in 10.0 mi SSE 9.2 mph - N/A   Overcast
7:56 PM 64.0 °F 63.0 °F 96% 29.96 in 10.0 mi SSE 8.1 mph - N/A   Overcast
8:03 PM 64.0 °F 63.0 °F 96% 29.95 in 10.0 mi SSE 10.4 mph - N/A   Overcast
8:15 PM 64.0 °F 63.0 °F 96% 29.95 in 10.0 mi South 9.2 mph - N/A   Overcast
8:56 PM 63.0 °F 63.0 °F 100% 29.95 in 9.0 mi South 11.5 mph - N/A   Overcast
9:48 PM 63.0 °F 63.0 °F 100% 29.94 in 7.0 mi South 5.8 mph - N/A   Overcast
9:56 PM 63.0 °F 63.0 °F 100% 29.95 in 6.0 mi South 8.1 mph - N/A   Overcast
10:56 PM 63.0 °F 63.0 °F 100% 29.94 in 1.8 mi South 9.2 mph - N/A   Overcast
11:09 PM 64.0 °F 64.0 °F 100% 29.93 in 0.8 mi South 10.4 mph - N/A   Mist
11:56 PM 64.0 °F 64.0 °F 100% 29.94 in 0.5 mi South 13.8 mph - 0.00 in Fog , Rain Light Rain